Location: Cicognara
(44.9500°N, 10.4667°E)
Time: 07:38:57
(UTC+00:00)

Lacrosse 4 Rocket - Pass Details

Date: 26 October 2021
Orbit: 537 x 619 km, 68.0° (Epoch: 07 December)

Event Time Altitude Azimuth Distance (km) Brightness Sun altitude
Rises 17:36:23 0° 325° (NW) 2,821 5.4 -15.0°
Reaches altitude 10° 17:38:38 10° 321° (NW) 1,929 4.6 -15.4°
Maximum altitude 17:42:52 53° 245° (WSW) 739 2.3 -16.1°
Drops below altitude 10° 17:47:10 10° 168° (SSE) 1,957 4.0 -16.9°
Sets 17:49:28 0° 164° (SSE) 2,865 4.8 -17.3°
